Probability
0 6 39 48 45 35 45 45 52 48 45 45 42 45 45 52 48 52 45 52 52 58 52 52 48 52 42 45 45 61 65 61 61 55 52 45 52 55 45 48 48 48 55
0 16 48 42 35 32 45 45 45 42 45 42 35 35 42 48 45 45 42 45 39 42 48 45 45 39 35 42 48 52 48 58 58 42 42 42 42 42 42 48 45 45 58
3 23 39 35 35 32 35 45 45 42 42 42 35 35 39 42 39 35 35 32 32 32 32 35 42 39 39 35 45 39 45 39 45 52 42 29 32 48 48 42 45 45 42
6 16 26 32 32 35 35 39 42 35 39 35 26 29 29 32 39 35 32 26 23 29 32 35 39 39 35 45 45 45 55 52 45 32 13 23 26 39 48 42 42 32 39
13 13 26 35 32 32 29 29 32 29 26 26 29 23 23 23 23 23 26 19 19 26 29 35 35 39 35 29 48 48 48 42 32 19 3 6 16 39 48 45 35 42 32
10 16 29 39 35 29 29 29 32 32 39 32 32 23 19 23 29 26 23 23 26 23 19 26 32 26 32 39 45 42 39 29 6 0 0 3 19 42 45 42 39 35 29
10 16 26 35 35 32 23 26 26 26 23 29 29 16 19 19 23 23 19 23 29 23 16 19 26 26 32 39 45 45 26 16 0 0 3 3 23 42 45 42 35 23 26
13 16 23 32 35 23 23 23 19 23 29 29 29 26 23 16 19 23 29 26 23 23 16 26 32 32 39 35 35 29 23 10 3 3 3 3 29 42 39 39 29 23 23
13 10 13 19 23 26 29 23 19 16 19 26 23 19 19 16 16 23 19 16 16 32 32 32 29 29 26 29 26 26 16 10 0 3 3 10 29 35 35 29 23 19 23
10 13 16 13 13 10 10 19 16 23 26 23 19 16 16 19 19 19 16 16 16 19 19 23 16 16 23 23 29 16 10 3 0 0 3 16 26 29 26 26 23 23 19
6 6 10 10 6 6 3 13 13 16 16 10 10 10 6 3 3 3 16 16 16 19 23 23 19 16 13 19 19 6 0 0 0 0 3 13 16 19 16 16 13 19 19
6 6 3 10 6 3 3 3 6 6 3 0 0 3 0 0 0 3 10 16 16 10 13 19 16 6 3 0 0 0 0 0 0 0 3 13 16 13 16 13 16 16 16
6 3 3 6 3 3 3 3 3 0 0 0 0 0 0 0 0 0 0 0 3 3 3 3 0 0 0 0 0 0 0 0 0 0 3 3 3 6 10 16 16 13 13
6 6 3 3 0 0 3 0 0 0 0 0 0 0 0 0 0 0 0 0 0 0 0 0 0 0 0 0 0 0 0 0 0 0 0 6 3 3 6 6 10 6 10
3 6 3 3 0 0 0 0 0 0 0 0 0 0 0 0 0 0 0 0 0 0 0 0 0 0 0 0 0 0 0 0 0 0 0 0 13 6 6 6 10 6 10
3 3 6 3 3 0 0 0 0 0 0 0 0 0 0 0 0 0 0 0 0 0 0 0 0 0 0 0 0 0 0 0 0 0 0 0 0 0 10 10 13 6 6
6 6 3 3 3 3 0 0 0 0 0 0 0 0 0 0 0 0 0 0 0 0 0 0 0 0 0 0 0 0 0 0 0 0 0 0 0 0 0 0 3 6 6
6 6 6 3 3 3 0 0 0 0 0 0 0 0 0 0 0 0 0 0 0 0 0 0 0 0 0 0 0 0 0 0 0 0 0 0 0 0 0 0 3 3 3
6 3 3 0 3 3 3 0 0 0 0 0 0 0 0 0 0 0 0 0 0 0 0 0 0 0 0 0 0 0 0 0 0 0 0 0 0 0 0 0 0 0 3
6 0 0 0 0 0 0 0 0 0 0 0 0 0 0 0 0 0 0 0 0 0 0 0 0 0 0 0 0 0 0 0 0 0 0 0 0 0 0 0 0 0 0
3 0 0 0 0 0 0 0 0 0 0 0 0 0 0 0 0 0 0 0 0 0 0 0 0 0 0 0 0 0 0 0 0 0 0 0 0 0 0 0 0 0 0
3 0 0 0 0 0 0 0 0 0 0 0 0 0 0 0 0 0 0 0 0 0 0 0 0 0 0 0 0 0 0 0 0 0 0 0 0 0 0 0 0 0 0
0 0 0 0 3 0 0 0 0 0 0 0 0 0 0 0 0 0 0 0 0 0 0 0 0 0 0 0 0 0 0 0 0 0 0 0 0 0 0 0 0 0 0
0 0 0 0 0 0 0 0 0 0 0 0 0 0 0 0 0 0 0 0 0 0 0 0 0 0 0 0 0 0 0 0 0 0 0 0 0 0 0 0 0 0 0
0 0 0 0 0 0 0 0 0 0 0 0 0 0 0 0 0 0 0 0 0 0 0 0 0 0 0 0 0 0 0 0 0 0 0 0 0 0 0 0 0 0 0
0 0 0 0 0 0 0 0 0 0 0 0 0 0 0 0 0 0 0 0 0 0 0 0 0 0 0 0 0 0 0 0 0 0 0 0 0 0 0 0 0 0 0
Height
5876 5876 5876 5875 5875 5875 5875 5875 5875 5875 5875 5875 5875 5875 5875 5876 5876 5876 5876 5877 5877 5877 5878 5878 5878 5879 5879 5879 5879 5880 5880 5880 5881 5881 5882 5882 5882 5882 5883 5883 5883 5884 5884
5876 5875 5875 5875 5875 5874 5874 5874 5874 5874 5874 5874 5874 5874 5874 5875 5875 5875 5875 5876 5876 5876 5876 5877 5877 5877 5877 5878 5878 5878 5878 5879 5879 5880 5880 5881 5881 5881 5881 5882 5882 5882 5882
5875 5875 5874 5874 5874 5873 5873 5873 5872 5873 5873 5873 5873 5873 5873 5873 5874 5874 5874 5874 5875 5875 5875 5875 5876 5876 5876 5876 5876 5876 5877 5877 5878 5878 5879 5879 5879 5880 5880 5880 5880 5881 5881
5874 5874 5873 5873 5873 5872 5872 5872 5871 5871 5871 5872 5872 5872 5872 5872 5872 5873 5873 5873 5873 5873 5874 5874 5874 5874 5874 5875 5875 5875 5875 5875 5876 5876 5877 5877 5877 5878 5878 5878 5879 5879 5879
5873 5873 5872 5872 5871 5871 5871 5870 5870 5870 5870 5870 5870 5870 5870 5870 5870 5871 5871 5871 5872 5872 5872 5872 5872 5872 5873 5873 5873 5873 5873 5874 5874 5874 5875 5875 5875 5876 5876 5876 5877 5877 5877
5872 5871 5871 5870 5870 5870 5869 5869 5868 5868 5869 5868 5868 5869 5869 5869 5869 5869 5869 5869 5870 5870 5870 5870 5870 5870 5871 5871 5871 5871 5871 5872 5872 5872 5873 5873 5873 5873 5874 5874 5874 5875 5875
5870 5870 5869 5869 5868 5868 5868 5867 5867 5867 5867 5867 5867 5867 5867 5867 5867 5867 5867 5867 5868 5868 5868 5868 5869 5869 5869 5869 5869 5869 5869 5869 5870 5870 5871 5871 5871 5871 5871 5871 5872 5872 5872
5868 5868 5867 5867 5867 5866 5866 5866 5865 5865 5865 5865 5865 5865 5865 5865 5865 5865 5865 5865 5866 5866 5866 5866 5866 5866 5866 5867 5867 5867 5867 5867 5868 5868 5868 5869 5869 5869 5869 5869 5869 5870 5870
5867 5866 5865 5865 5865 5865 5864 5864 5864 5863 5863 5863 5863 5863 5863 5863 5863 5863 5863 5863 5863 5864 5864 5864 5864 5864 5864 5865 5865 5865 5865 5865 5866 5866 5866 5866 5866 5867 5867 5867 5867 5867 5868
5865 5864 5864 5863 5863 5863 5863 5862 5862 5861 5861 5861 5860 5860 5860 5860 5861 5861 5861 5861 5861 5861 5861 5861 5862 5862 5862 5862 5863 5863 5863 5863 5863 5863 5864 5864 5864 5864 5864 5865 5865 5865 5865
5864 5863 5862 5862 5861 5861 5861 5861 5860 5859 5859 5859 5859 5858 5858 5858 5858 5859 5859 5859 5859 5859 5859 5859 5860 5860 5860 5861 5861 5861 5861 5861 5861 5861 5861 5862 5862 5862 5862 5862 5862 5863 5863
5862 5861 5861 5860 5860 5859 5859 5859 5858 5857 5857 5857 5857 5856 5856 5856 5856 5856 5857 5857 5857 5857 5857 5857 5857 5858 5858 5859 5859 5859 5859 5859 5859 5859 5859 5859 5859 5859 5860 5860 5860 5860 5860
5861 5860 5859 5859 5858 5858 5857 5857 5856 5855 5855 5855 5854 5854 5854 5854 5854 5854 5854 5855 5855 5855 5855 5855 5856 5856 5856 5857 5857 5857 5857 5857 5857 5857 5857 5857 5857 5857 5858 5858 5858 5858 5858
5859 5858 5858 5857 5856 5856 5855 5855 5854 5854 5853 5853 5853 5852 5852 5852 5852 5852 5852 5853 5853 5853 5853 5853 5854 5854 5854 5855 5855 5855 5855 5855 5855 5855 5855 5855 5855 5855 5856 5856 5855 5855 5855
5857 5857 5856 5855 5854 5854 5853 5853 5852 5852 5851 5851 5851 5850 5850 5850 5850 5850 5850 5851 5851 5851 5851 5852 5852 5852 5852 5853 5853 5853 5854 5854 5854 5854 5854 5854 5854 5854 5854 5854 5853 5853 5853
5856 5855 5854 5853 5853 5852 5851 5851 5850 5850 5849 5849 5848 5848 5848 5848 5848 5848 5848 5849 5849 5849 5850 5850 5850 5850 5851 5851 5851 5851 5852 5852 5852 5852 5853 5852 5852 5852 5852 5852 5852 5851 5851
5854 5853 5852 5852 5851 5850 5850 5849 5848 5848 5847 5847 5846 5846 5846 5846 5846 5846 5847 5847 5847 5848 5848 5848 5848 5848 5849 5849 5849 5850 5850 5850 5851 5851 5851 5851 5850 5850 5850 5850 5850 5850 5849
5853 5852 5851 5850 5850 5849 5848 5847 5847 5846 5845 5845 5844 5844 5844 5844 5844 5845 5845 5846 5846 5846 5846 5846 5846 5847 5847 5847 5848 5848 5848 5849 5849 5849 5849 5849 5849 5849 5849 5849 5848 5848 5848
5851 5850 5849 5848 5848 5847 5846 5846 5845 5844 5844 5843 5843 5843 5843 5843 5843 5843 5843 5844 5844 5845 5845 5845 5845 5845 5845 5846 5846 5846 5847 5847 5848 5848 5848 5848 5847 5847 5847 5847 5847 5847 5846
5850 5849 5848 5847 5846 5845 5844 5844 5843 5842 5842 5842 5841 5841 5841 5842 5842 5842 5842 5842 5842 5843 5843 5843 5843 5843 5844 5844 5845 5845 5846 5846 5846 5846 5846 5846 5846 5846 5846 5846 5846 5846 5845
5848 5847 5846 5845 5844 5843 5843 5842 5841 5841 5840 5840 5840 5840 5840 5840 5841 5841 5841 5841 5841 5841 5842 5842 5842 5842 5842 5843 5844 5844 5844 5845 5845 5845 5845 5845 5845 5845 5845 5844 5844 5844 5844
5846 5845 5844 5843 5842 5842 5841 5840 5840 5839 5839 5839 5839 5839 5839 5839 5839 5840 5840 5840 5840 5840 5840 5841 5841 5841 5841 5842 5842 5843 5843 5844 5844 5844 5844 5844 5844 5844 5843 5843 5843 5843 5843
5844 5843 5842 5842 5841 5840 5839 5839 5838 5838 5838 5838 5838 5838 5838 5838 5838 5838 5838 5839 5839 5839 5839 5839 5840 5840 5840 5841 5841 5842 5842 5842 5843 5843 5843 5843 5843 5843 5843 5842 5842 5842 5841
5842 5841 5840 5839 5839 5838 5837 5837 5837 5837 5836 5836 5836 5836 5836 5836 5836 5837 5837 5837 5837 5837 5838 5838 5838 5839 5839 5840 5840 5841 5841 5842 5842 5842 5842 5842 5842 5842 5842 5841 5841 5841 5840
5840 5839 5838 5837 5837 5836 5835 5835 5835 5835 5835 5835 5835 5834 5835 5835 5835 5835 5835 5835 5835 5836 5836 5837 5837 5838 5838 5839 5839 5839 5840 5840 5841 5841 5841 5841 5841 5841 5840 5840 5840 5839 5839
5838 5837 5836 5835 5835 5834 5834 5833 5833 5833 5833 5833 5833 5833 5833 5833 5833 5833 5833 5833 5834 5834 5835 5835 5836 5836 5837 5837 5838 5838 5839 5839 5839 5840 5840 5840 5840 5840 5839 5839 5839 5838 5838
Wind_Speed
2 2 2 3 4 4 5 4 3 3 3 3 3 3 4 4 4 4 4 5 5 6 6 6 6 6 6 6 7 7 7 7 7 7 7 7 7 6 6 6 6 6 6
3 3 4 4 5 5 6 6 5 4 4 4 4 4 5 5 5 5 6 6 6 6 6 7 7 6 7 7 7 7 7 8 8 8 8 8 8 7 7 7 7 7 7
5 5 5 5 6 6 7 7 6 6 6 5 5 5 6 6 6 6 6 6 6 7 7 7 7 7 7 8 8 8 8 8 8 8 8 8 8 8 8 9 9 8 8
5 6 6 6 6 6 6 6 6 6 6 6 6 6 7 7 7 7 7 7 7 7 7 7 8 8 8 8 8 8 9 9 9 9 9 9 9 9 10 10 10 9 9
6 6 6 6 6 6 6 6 5 6 6 7 7 7 7 8 8 8 9 8 8 8 8 8 8 9 9 9 9 9 9 10 10 10 10 10 11 11 10 11 10 10 10
6 7 7 7 7 7 6 6 6 6 7 7 8 8 8 8 8 9 9 9 9 9 8 8 8 9 9 10 10 10 10 11 11 11 11 11 11 11 11 11 11 11 10
7 7 7 7 7 7 7 7 7 7 7 8 8 8 8 8 9 9 9 9 10 10 9 9 9 9 10 10 10 10 10 11 11 11 11 11 11 12 12 11 11 11 11
7 7 7 7 7 7 7 7 8 8 8 8 9 9 9 9 9 10 10 10 10 11 10 11 11 10 10 10 10 10 10 10 10 11 11 11 11 11 11 11 11 11 11
8 8 7 7 7 7 7 7 8 8 8 9 9 9 9 9 9 9 10 10 10 10 11 11 10 10 10 10 10 10 10 10 11 11 11 11 11 11 11 11 11 11 11
8 7 7 7 7 7 7 8 8 8 9 9 9 9 9 9 9 9 9 9 9 10 10 10 9 9 9 10 9 9 9 10 11 11 11 11 11 10 11 11 10 11 11
8 7 7 7 6 7 8 8 8 8 9 9 9 10 10 10 10 9 9 9 9 9 9 10 10 10 10 9 9 9 9 9 10 10 10 10 11 11 11 11 11 11 11
9 8 7 7 6 7 7 8 8 9 9 9 10 10 10 10 10 10 10 10 9 9 9 10 11 11 11 10 10 9 9 9 9 9 10 10 11 11 11 11 11 11 11
9 8 7 7 6 6 7 8 9 9 9 9 9 9 10 10 10 10 10 10 10 9 9 9 9 10 10 9 9 10 9 9 8 8 9 10 10 10 10 11 11 11 10
8 8 8 8 8 8 8 9 9 9 9 9 9 9 9 9 9 9 9 10 10 9 9 9 9 9 9 9 9 9 9 8 8 8 8 8 9 9 9 10 10 10 10
8 8 8 9 9 9 9 9 9 9 9 9 8 9 9 9 8 8 8 8 9 9 9 9 9 9 9 10 9 9 9 8 8 8 8 8 8 9 9 9 9 9 9
8 8 8 9 9 9 9 9 9 9 8 8 8 8 8 8 8 7 7 8 8 8 7 8 9 9 9 9 9 9 8 8 7 7 7 7 8 8 8 8 8 8 8
8 8 8 8 8 8 9 9 9 8 8 8 8 8 8 8 8 7 6 6 7 7 7 8 8 8 8 8 8 8 8 7 7 6 7 7 7 7 7 7 8 8 8
9 9 8 8 8 9 9 9 8 8 8 7 7 8 7 7 7 7 7 6 7 7 7 7 7 7 7 7 7 7 7 7 6 6 7 8 7 8 8 7 7 8 8
9 9 9 9 8 9 9 8 8 8 8 7 7 7 6 6 6 6 6 7 7 7 7 7 6 6 6 6 7 7 7 7 6 6 7 7 7 7 7 7 7 7 7
9 9 9 8 8 8 9 9 8 8 7 6 6 6 6 6 6 6 6 6 6 7 7 6 6 6 6 6 6 7 7 7 6 6 6 6 6 6 6 6 6 6 7
9 9 9 9 9 8 8 8 7 6 6 6 5 6 6 5 5 6 6 6 6 5 5 5 5 6 6 6 6 6 6 6 5 4 5 5 5 5 5 5 5 5 6
9 9 9 9 9 8 7 7 7 6 5 5 5 5 6 5 5 6 6 6 5 5 4 4 5 5 5 5 5 5 5 5 4 4 4 4 4 5 5 5 5 4 5
9 9 9 9 9 8 7 7 7 6 6 5 5 5 5 6 6 7 6 6 6 5 5 5 5 5 5 5 5 5 4 5 5 5 4 4 4 4 4 4 5 5 5
9 10 10 9 9 8 7 7 7 6 6 6 6 6 6 6 6 7 7 7 7 6 6 6 5 5 5 5 5 5 5 5 5 5 5 4 4 4 4 4 5 5 6
9 10 10 9 9 8 7 7 7 7 6 6 7 6 6 7 7 8 8 8 8 7 7 6 6 6 6 5 5 5 5 5 5 5 5 5 5 4 4 5 5 5 5
10 10 10 10 9 8 8 7 7 7 6 6 7 7 7 7 8 8 8 7 8 7 7 7 7 6 6 6 6 6 5 5 5 5 4 4 5 5 5 5 5 5 6
Wind_Direction
311 312 305 308 309 310 307 303 300 298 301 301 305 303 301 299 293 295 292 289 287 279 275 275 275 276 274 271 267 263 264 265 267 268 267 269 271 271 273 270 267 267 269
293 291 296 299 301 304 301 294 288 285 288 291 292 293 291 288 283 287 287 288 287 280 276 277 277 276 273 272 269 266 266 267 266 267 266 267 268 272 274 273 272 269 269
295 289 289 295 299 298 297 290 285 280 279 285 287 289 290 285 284 286 286 288 289 283 280 273 276 273 269 267 268 269 270 270 269 268 266 265 266 268 270 272 272 271 269
290 286 285 288 296 298 294 291 290 282 280 283 286 288 284 280 282 281 281 281 283 282 283 284 278 271 268 268 269 270 271 273 271 270 267 266 268 269 270 271 271 271 269
286 283 286 287 294 296 292 288 289 286 283 284 284 289 284 280 280 276 277 276 278 279 280 282 283 277 270 268 270 271 272 273 274 272 266 267 270 270 269 270 269 270 270
286 283 284 287 291 291 290 287 283 281 282 281 283 287 285 280 279 275 272 273 274 274 276 277 278 279 275 273 272 270 270 273 273 270 268 267 269 271 269 267 268 268 268
288 287 285 285 285 285 285 286 286 280 279 278 280 281 282 281 278 274 270 269 269 270 271 271 272 273 272 272 271 270 273 273 273 271 268 268 269 271 270 268 267 269 268
289 286 281 283 281 279 279 283 285 283 276 275 277 277 279 279 278 274 270 269 268 268 270 269 268 266 267 271 270 270 275 273 272 270 268 269 270 272 271 269 269 267 267
294 288 285 283 279 280 280 282 282 284 282 278 278 277 278 278 276 273 270 268 267 267 269 270 265 263 264 269 272 274 277 275 273 271 268 268 270 272 270 269 268 266 267
299 292 287 287 282 282 283 284 283 283 283 284 284 279 279 276 273 272 270 268 265 267 268 267 263 260 265 269 273 275 274 274 271 269 267 266 269 269 266 267 266 266 267
306 298 293 289 284 282 280 283 282 283 284 284 282 279 277 276 273 269 268 266 265 266 266 263 260 259 262 265 270 273 273 275 273 267 265 265 266 265 262 263 265 265 268
309 303 296 294 286 284 283 285 285 284 286 284 280 277 275 274 272 269 267 266 265 264 265 261 259 258 259 262 265 266 269 275 276 270 268 266 266 264 262 264 265 268 271
308 305 299 297 295 291 288 288 287 286 286 285 279 277 276 273 272 271 267 267 264 262 262 259 257 259 259 258 259 262 265 270 275 274 267 264 265 266 267 268 267 268 271
306 304 305 304 300 299 292 288 288 288 287 283 280 279 276 272 272 272 270 267 263 258 258 255 254 256 259 259 259 259 260 265 269 268 265 267 268 268 271 270 270 271 271
304 304 307 307 303 304 299 292 289 288 284 282 279 279 275 271 269 268 268 266 263 260 255 252 251 251 255 259 260 258 257 260 264 265 267 269 270 273 275 276 276 274 271
307 308 306 305 303 306 304 299 294 291 286 283 278 277 271 267 265 266 267 265 266 260 256 256 254 250 254 256 257 257 257 260 264 270 274 275 277 278 277 275 284 285 280
311 310 309 305 304 304 303 299 297 294 288 283 279 273 266 263 262 257 260 263 263 258 254 258 258 257 255 254 256 256 254 257 258 270 272 277 281 278 280 282 283 286 286
308 308 306 303 304 304 302 300 298 294 287 282 280 276 266 262 261 255 258 263 263 261 260 260 259 259 257 255 254 249 249 252 256 266 272 277 273 276 277 279 283 286 286
308 306 306 304 303 302 299 298 296 291 286 281 278 277 266 259 259 256 261 262 262 263 264 262 266 260 258 254 252 252 249 251 258 267 273 269 267 273 277 277 283 280 278
305 305 307 311 311 307 306 301 296 293 290 286 279 272 264 259 257 257 259 260 257 260 265 264 262 257 253 251 253 253 252 253 258 267 275 275 279 277 279 279 280 281 282
304 301 302 307 311 310 309 306 300 293 292 286 277 273 266 264 261 258 257 258 256 261 266 266 262 251 250 249 253 253 253 255 264 271 278 285 289 288 293 287 293 292 291
306 302 299 302 304 304 302 299 292 286 286 280 272 269 264 259 259 256 252 249 250 258 264 264 258 251 247 247 252 254 255 254 259 271 276 280 283 291 294 293 295 299 300
304 303 301 302 300 297 294 293 289 285 283 282 275 264 260 257 254 252 252 258 256 252 256 262 253 250 246 248 251 255 257 256 264 266 271 272 273 281 286 294 300 301 301
299 300 300 299 295 295 293 290 284 283 280 276 273 266 261 259 255 258 258 261 260 255 254 257 253 252 251 252 255 255 262 266 269 265 266 271 274 282 287 293 303 309 308
296 296 297 297 295 295 295 286 276 275 275 270 266 268 266 264 262 259 259 260 259 255 255 258 253 253 253 257 260 260 263 262 260 261 264 269 276 282 287 296 301 309 309
291 290 290 291 291 288 288 287 279 276 275 272 270 270 267 266 264 259 258 259 257 255 255 252 248 252 253 258 260 260 261 260 257 253 255 267 278 285 290 298 306 310 309